When you browse on this site, cookies collect data to enhance your experience and personalize the content and advertising you see.
Visit our Privacy Policy to learn more. By continuing to use the site, you agree to this use of cookies and data.
  • In Denmark
  • List of Countries
  • For 7 days
  • Water Temperature
  • Weather Map
  • Weather Widgets
  • user-avatar
    Login

    Hourly Weather Babin

    Today, 16 October, Wednesday

    Time Temperature Precipitation Wind Pressure Humidity
    00:00 +14°C° 0 mm 3 mps 741 mmHg 82%
    01:00 +14°C° 0 mm 3 mps 741 mmHg 85%
    02:00 +14°C° 0 mm 4 mps 741 mmHg 84%
    03:00 +14°C° 0 mm 4 mps 741 mmHg 84%
    04:00 +14°C° 0 mm 4 mps 741 mmHg 84%
    05:00 +14°C° 0 mm 4 mps 742 mmHg 82%
    06:00 +14°C° 0 mm 5 mps 743 mmHg 80%
    07:00 +14°C° 0 mm 6 mps 743 mmHg 78%
    08:00 +14°C° 0 mm 6 mps 744 mmHg 77%
    09:00 +14°C° 0 mm 6 mps 745 mmHg 75%
    10:00 +14°C° 0 mm 6 mps 745 mmHg 74%
    11:00 +15°C° 0 mm 6 mps 746 mmHg 69%
    12:00 +16°C° 0 mm 6 mps 746 mmHg 64%
    13:00 +16°C° 0 mm 6 mps 746 mmHg 59%
    14:00 +16°C° 0 mm 6 mps 746 mmHg 59%
    15:00 +15°C° 0 mm 5 mps 746 mmHg 60%
    16:00 +15°C° 0 mm 5 mps 746 mmHg 61%
    17:00 +14°C° 0 mm 5 mps 746 mmHg 63%
    18:00 +13°C° 0 mm 4 mps 747 mmHg 65%
    19:00 +12°C° 0 mm 4 mps 747 mmHg 67%
    20:00 +12°C° 0 mm 4 mps 747 mmHg 66%
    21:00 +12°C° 0 mm 4 mps 747 mmHg 65%
    22:00 +13°C° 0 mm 4 mps 748 mmHg 64%
    23:00 +13°C° 0 mm 4 mps 748 mmHg 63%

    Tomorrow, 17 October, Thursday

    Time Temperature Precipitation Wind Pressure Humidity
    00:00 +13°C° 0 mm 4 mps 748 mmHg 62%
    01:00 +13°C° 0 mm 4 mps 748 mmHg 61%
    02:00 +13°C° 0 mm 4 mps 748 mmHg 61%
    03:00 +13°C° 0 mm 4 mps 748 mmHg 62%
    04:00 +12°C° 0 mm 3 mps 748 mmHg 62%
    05:00 +12°C° 0 mm 3 mps 748 mmHg 63%
    06:00 +12°C° 0 mm 3 mps 748 mmHg 63%
    07:00 +12°C° 0 mm 3 mps 748 mmHg 64%
    08:00 +14°C° 0 mm 3 mps 748 mmHg 59%
    09:00 +16°C° 0 mm 3 mps 748 mmHg 53%
    10:00 +18°C° 0 mm 3 mps 748 mmHg 48%
    11:00 +19°C° 0 mm 2 mps 748 mmHg 46%
    12:00 +20°C° 0 mm 2 mps 748 mmHg 45%
    13:00 +21°C° 0 mm 2 mps 748 mmHg 43%
    14:00 +20°C° 0 mm 2 mps 748 mmHg 49%
    15:00 +19°C° 0 mm 2 mps 748 mmHg 54%
    16:00 +18°C° 0 mm 2 mps 748 mmHg 59%
    17:00 +17°C° 0 mm 2 mps 748 mmHg 62%
    18:00 +16°C° 0 mm 1 mps 748 mmHg 64%
    19:00 +15°C° 0 mm 1 mps 749 mmHg 67%
    20:00 +15°C° 0 mm 1 mps 749 mmHg 68%
    21:00 +14°C° 0 mm 1 mps 749 mmHg 70%
    22:00 +14°C° 0 mm 1 mps 749 mmHg 71%
    23:00 +13°C° 0 mm 1 mps 749 mmHg 73%

    Day after tomorrow, 18 October, Friday

    Time Temperature Precipitation Wind Pressure Humidity
    00:00 +13°C° 0 mm 1 mps 749 mmHg 75%
    01:00 +13°C° 0 mm 1 mps 749 mmHg 77%
    02:00 +13°C° 0 mm 1 mps 749 mmHg 77%
    03:00 +13°C° 0 mm 1 mps 749 mmHg 77%
    04:00 +13°C° 0 mm 1 mps 749 mmHg 78%
    05:00 +13°C° 0 mm 1 mps 749 mmHg 78%
    06:00 +13°C° 0 mm 1 mps 749 mmHg 78%
    07:00 +13°C° 0 mm 1 mps 749 mmHg 78%
    08:00 +15°C° 0 mm 1 mps 749 mmHg 72%
    09:00 +16°C° 0 mm 1 mps 749 mmHg 66%
    10:00 +19°C° 0 mm 1 mps 749 mmHg 60%
    11:00 +20°C° 0 mm 1 mps 749 mmHg 57%
    12:00 +21°C° 0 mm 1 mps 748 mmHg 54%
    13:00 +22°C° 0 mm 1 mps 748 mmHg 51%
    14:00 +21°C° 0 mm 1 mps 748 mmHg 54%
    15:00 +21°C° 0 mm 1 mps 748 mmHg 57%
    16:00 +20°C° 0 mm 1 mps 748 mmHg 61%
    17:00 +19°C° 0 mm 1 mps 748 mmHg 64%
    18:00 +18°C° 0 mm 1 mps 748 mmHg 67%
    19:00 +16°C° 0 mm 1 mps 747 mmHg 70%
    20:00 +16°C° 0 mm 1 mps 748 mmHg 70%
    21:00 +16°C° 0 mm 1 mps 748 mmHg 70%
    22:00 +15°C° 0 mm 1 mps 748 mmHg 71%
    23:00 +15°C° 0 mm 1 mps 747 mmHg 72%

    19 October, Saturday

    Time Temperature Precipitation Wind Pressure Humidity
    00:00 +15°C° 0 mm 1 mps 747 mmHg 74%
    01:00 +15°C° 0 mm 1 mps 747 mmHg 76%
    02:00 +14°C° 0 mm 1 mps 746 mmHg 78%
    03:00 +14°C° 0 mm 1 mps 746 mmHg 80%
    04:00 +13°C° 0 mm 2 mps 746 mmHg 82%
    05:00 +13°C° 0 mm 2 mps 745 mmHg 82%
    06:00 +13°C° 0 mm 2 mps 745 mmHg 82%
    07:00 +13°C° 0 mm 2 mps 745 mmHg 81%
    08:00 +14°C° 0 mm 2 mps 744 mmHg 76%
    09:00 +16°C° 0 mm 2 mps 744 mmHg 72%
    10:00 +17°C° 0 mm 2 mps 744 mmHg 67%
    11:00 +18°C° 0 mm 2 mps 744 mmHg 65%
    12:00 +18°C° 0 mm 2 mps 743 mmHg 62%
    13:00 +19°C° 0 mm 3 mps 743 mmHg 60%
    14:00 +18°C° 0 mm 2 mps 743 mmHg 62%
    15:00 +18°C° 0 mm 2 mps 743 mmHg 65%
    16:00 +19°C° 0 mm 1 mps 743 mmHg 67%
    17:00 +16°C° 0 mm 1 mps 743 mmHg 72%
    18:00 +15°C° 0 mm 1 mps 743 mmHg 77%
    19:00 +14°C° 0 mm 1 mps 743 mmHg 82%
    20:00 +13°C° 0 mm 1 mps 743 mmHg 83%
    21:00 +13°C° 0 mm 1 mps 743 mmHg 84%
    22:00 +13°C° 0 mm 1 mps 743 mmHg 86%
    23:00 +12°C° 0 mm 1 mps 743 mmHg 86%

    20 October, Sunday

    Time Temperature Precipitation Wind Pressure Humidity
    00:00 +12°C° 0 mm 1 mps 744 mmHg 86%
    01:00 +12°C° 0 mm 1 mps 744 mmHg 86%
    02:00 +12°C° 0 mm 1 mps 744 mmHg 86%
    03:00 +12°C° 0 mm 1 mps 744 mmHg 85%
    04:00 +12°C° 0 mm 1 mps 744 mmHg 85%
    05:00 +12°C° 0.2 mm 1 mps 745 mmHg 87%
    06:00 +13°C° 0.2 mm 1 mps 745 mmHg 88%
    07:00 +13°C° 0.2 mm 2 mps 746 mmHg 90%
    08:00 +13°C° 0.5 mm 2 mps 746 mmHg 90%
    09:00 +13°C° 0.5 mm 1 mps 746 mmHg 90%
    10:00 +13°C° 0.5 mm 1 mps 747 mmHg 90%
    11:00 +14°C° 0 mm 1 mps 747 mmHg 84%
    12:00 +15°C° 0 mm 1 mps 747 mmHg 78%
    13:00 +16°C° 0 mm 1 mps 748 mmHg 72%
    14:00 +16°C° 0 mm 1 mps 748 mmHg 73%
    15:00 +15°C° 0 mm 1 mps 748 mmHg 75%
    16:00 +15°C° 0 mm 1 mps 748 mmHg 77%
    17:00 +14°C° 0 mm 1 mps 748 mmHg 80%
    18:00 +13°C° 0 mm 1 mps 748 mmHg 84%
    19:00 +13°C° 0 mm 1 mps 749 mmHg 87%
    20:00 +13°C° 0 mm 1 mps 749 mmHg 87%
    21:00 +13°C° 0 mm 1 mps 749 mmHg 86%
    22:00 +12°C° 0 mm 1 mps 749 mmHg 86%
    23:00 +13°C° 0 mm 1 mps 749 mmHg 86%

    21 October, Monday

    Time Temperature Precipitation Wind Pressure Humidity
    00:00 +13°C° 0 mm 1 mps 749 mmHg 86%
    01:00 +13°C° 0 mm 1 mps 749 mmHg 86%
    02:00 +13°C° 0.1 mm 1 mps 748 mmHg 88%
    03:00 +12°C° 0.1 mm 1 mps 748 mmHg 90%
    04:00 +12°C° 0.1 mm 1 mps 748 mmHg 93%
    05:00 +12°C° 0.1 mm 1 mps 748 mmHg 93%
    06:00 +12°C° 0.1 mm 2 mps 748 mmHg 94%
    07:00 +12°C° 0.1 mm 2 mps 748 mmHg 95%
    08:00 +13°C° 0 mm 2 mps 748 mmHg 94%
    09:00 +13°C° 0 mm 2 mps 748 mmHg 94%
    10:00 +13°C° 0 mm 2 mps 748 mmHg 93%
    11:00 +13°C° 0.1 mm 2 mps 748 mmHg 93%
    12:00 +13°C° 0.1 mm 2 mps 748 mmHg 93%
    13:00 +13°C° 0.1 mm 2 mps 749 mmHg 93%
    14:00 +13°C° 0.1 mm 2 mps 749 mmHg 94%
    15:00 +13°C° 0.1 mm 2 mps 749 mmHg 94%
    16:00 +13°C° 0.1 mm 2 mps 749 mmHg 95%
    17:00 +13°C° 0 mm 2 mps 749 mmHg 95%
    18:00 +13°C° 0 mm 2 mps 749 mmHg 95%
    19:00 +12°C° 0 mm 2 mps 750 mmHg 96%
    20:00 +12°C° 0 mm 2 mps 750 mmHg 96%
    21:00 +12°C° 0 mm 2 mps 750 mmHg 96%
    22:00 +12°C° 0 mm 2 mps 750 mmHg 96%
    23:00 +12°C° 0 mm 2 mps 750 mmHg 96%
    Show more